Location: ???????
(55.4231°N, 38.5570°E)
Time: 13:47:32
(UTC+00:00)

Cosmos 1666 Rocket - Pass Details

Date: 05 August 2024
Orbit: 599 x 629 km, 82.5° (Epoch: 18 September)

Event Time Altitude Azimuth Distance (km) Brightness Sun altitude
Exits shadow 00:21:04 12° 210° (SSW) 1,871 5.4 -9.3°
Maximum altitude 00:25:05 53° 287° (WNW) 775 3.9 -9.0°
Drops below altitude 10° 00:29:30 10° 5° (N) 2,025 7.1 -8.6°
Sets 00:31:48 0° 10° (N) 2,938 8.1 -8.3°
